DW3838 Weather Reports


Display with metric or nautical units.
time (UTC)temp
F
wind
direction
speed
MPH
gust
MPH
rain 1hr
in
rain 24hr
in
rain mn
in
humidity
%
barometer
mb
20260905181531 68 225 0.0 6.0 0.00 0.01 0.01 70 1015.3
20260905180029 66 238 0.0 4.0 0.00 0.01 0.01 72 1015.4
20260905174523 65 146 0.0 5.0 0.00 0.01 0.01 74 1015.5
20260905173019 63 177 0.0 2.0 0.00 0.01 0.01 81 1015.5
20260905171533 61 193 0.0 1.0 0.00 0.01 0.01 87 1015.5
20260905170011 57 134 0.0 2.0 0.00 0.01 0.01 89 1015.5
20260905164507 55 132 0.0 3.0 0.00 0.01 0.01 92 1015.5
20260905163004 54 132 0.0 3.0 0.00 0.01 0.01 93 1015.4
20260905161501 53 132 0.0 3.0 0.00 0.01 0.01 93 1015.4
20260905160100 52 304 0.0 0.0 0.00 0.01 0.01 93 1015.4
20260905154600 51 304 0.0 0.0 0.00 0.01 0.01 93 1015.4
20260905153057 50 304 0.0 0.0 0.00 0.01 0.01 93 1015.2
20260905151556 50 304 0.0 0.0 0.00 0.01 0.01 93 1015.2
20260905150056 49 304 0.0 0.0 0.00 0.01 0.01 93 1015.1
20260905144557 49 304 0.0 0.0 0.01 0.01 0.01 93 1015.0
20260905143054 48 304 0.0 0.0 0.01 0.01 0.01 92 1015.0
20260905141552 48 304 0.0 0.0 0.01 0.01 0.01 92 1014.9
20260905140053 48 304 0.0 0.0 0.01 0.01 0.01 92 1014.8
20260905134556 48 299 0.0 0.0 0.00 0.00 0.00 92 1014.7
20260905133051 48 299 0.0 0.0 0.00 0.00 0.00 92 1014.7
20260905131551 48 299 0.0 0.0 0.00 0.00 0.00 92 1014.6
20260905130048 48 299 0.0 0.0 0.00 0.00 0.00 92 1014.6
20260905124550 49 299 0.0 0.0 0.00 0.00 0.00 92 1014.5
20260905123046 48 299 0.0 0.0 0.00 0.00 0.00 92 1014.5
20260905121545 48 299 0.0 0.0 0.00 0.00 0.00 92 1014.5
20260905120045 49 299 0.0 0.0 0.00 0.00 0.00 92 1014.5
20260905114548 49 299 0.0 0.0 0.00 0.00 0.00 92 1014.6
20260905113043 49 299 0.0 0.0 0.00 0.00 0.00 91 1014.6
20260905111542 49 299 0.0 0.0 0.00 0.00 0.00 91 1014.6
20260905110039 49 299 0.0 0.0 0.00 0.00 0.00 91 1014.7
20260905103023 49 299 0.0 0.0 0.00 0.00 0.00 91 1014.7
20260905101531 50 299 0.0 0.0 0.00 0.00 0.00 91 1014.6
20260905100018 50 299 0.0 0.0 0.00 0.00 0.00 91 1014.5
20260905094518 50 299 0.0 0.0 0.00 0.00 0.00 91 1014.7
20260905093016 50 299 0.0 0.0 0.00 0.00 0.00 91 1014.8
20260905091514 50 299 0.0 0.0 0.00 0.00 0.00 91 1014.9
20260905090018 51 299 0.0 0.0 0.00 0.00 0.00 91 1014.9
20260905084517 51 299 0.0 0.0 0.00 0.00 0.00 91 1014.9
20260905083015 51 299 0.0 0.0 0.00 0.00 0.00 91 1015.0
20260905081510 51 299 0.0 0.0 0.00 0.00 0.00 91 1015.0
20260905080015 52 299 0.0 0.0 0.00 0.00 0.00 91 1014.9
20260905074508 52 299 0.0 0.0 0.00 0.00 0.00 91 1014.9
20260905073019 52 299 0.0 0.0 0.00 0.00 0.00 91 1015.0
20260905071503 53 299 0.0 0.0 0.00 0.00 0.00 91 1014.9
20260905070001 53 299 0.0 0.0 0.00 0.00 0.00 91 1014.8
20260905064502 53 299 0.0 0.0 0.00 0.00 0.00 91 1014.8
20260905063117 54 299 0.0 0.0 0.00 0.00 0.00 91 1014.7
20260905061613 54 299 0.0 0.0 0.00 0.00 0.00 91 1014.7
20260905060100 54 299 0.0 0.0 0.00 0.00 0.00 91 1014.7
20260905054559 55 299 0.0 0.0 0.00 0.00 0.00 90 1014.9
20260905053059 55 299 0.0 0.0 0.00 0.00 0.00 90 1014.9
20260905051558 55 299 0.0 0.0 0.00 0.00 0.00 90 1015.0
20260905050058 56 299 0.0 0.0 0.00 0.00 0.00 90 1015.1
20260905044557 56 299 0.0 0.0 0.00 0.00 0.00 89 1015.0
20260905043114 56 299 0.0 0.0 0.00 0.00 0.00 88 1014.9
20260905041555 57 299 0.0 0.0 0.00 0.00 0.00 87 1014.7
20260905040115 58 299 0.0 0.0 0.00 0.00 0.00 86 1014.5
20260905034558 58 299 0.0 0.0 0.00 0.00 0.00 84 1014.5
20260905033055 59 299 0.0 3.0 0.00 0.00 0.00 82 1014.3
20260905031553 60 20 0.0 0.0 0.00 0.00 0.00 81 1014.1
20260905030053 60 20 0.0 0.0 0.00 0.00 0.00 78 1014.1
20260905024552 61 355 0.0 6.0 0.00 0.00 0.00 77 1014.0
20260905023058 61 42 0.0 5.0 0.00 0.00 0.00 75 1014.0
20260905021552 62 14 0.0 3.0 0.00 0.00 0.00 74 1013.9
20260905020051 63 350 2.0 9.0 0.00 0.00 0.00 73 1013.9
20260905014550 63 37 1.0 5.0 0.00 0.00 0.00 71 1013.9
20260905013057 63 38 1.0 16.0 0.00 0.00 0.00 69 1014.0
20260905011551 64 240 2.0 12.0 0.00 0.00 0.00 68 1013.9
20260905010052 64 117 1.0 6.0 0.00 0.00 0.00 68 1013.9
20260905004548 65 264 2.0 10.0 0.00 0.00 0.00 66 1013.8
20260905003047 66 157 2.0 10.0 0.00 0.00 0.00 62 1013.9
20260905001547 68 360 1.0 8.0 0.00 0.00 0.00 59 1013.8
20260905000047 69 107 1.0 12.0 0.00 0.00 0.00 58 1013.9
20260904234550 70 195 2.0 10.0 0.00 0.00 0.00 55 1014.0
20260904233045 70 182 1.0 9.0 0.00 0.00 0.00 54 1013.9
20260904231545 71 167 1.0 10.0 0.00 0.00 0.00 53 1013.9
20260904230045 72 111 2.0 6.0 0.00 0.00 0.00 53 1014.0
20260904224546 72 328 1.0 10.0 0.00 0.01 0.00 55 1014.0
20260904223043 71 95 0.0 8.0 0.00 0.01 0.00 55 1014.2
20260904221543 71 179 2.0 9.0 0.00 0.01 0.00 53 1014.3
20260904220106 72 161 3.0 8.0 0.00 0.01 0.00 53 1014.3
20260904214542 73 151 1.0 5.0 0.00 0.01 0.00 54 1014.4
20260904213041 72 21 1.0 9.0 0.00 0.01 0.00 54 1014.4
20260904211545 73 175 2.0 8.0 0.00 0.01 0.00 54 1014.4
20260904210046 72 311 2.0 10.0 0.00 0.01 0.00 55 1014.5
20260904204539 71 318 3.0 9.0 0.00 0.01 0.00 53 1014.4
20260904203047 70 341 1.0 8.0 0.00 0.01 0.00 61 1014.4
20260904201531 70 225 0.0 8.0 0.00 0.01 0.00 63 1014.3
20260904200031 69 156 3.0 9.0 0.00 0.01 0.00 63 1014.4
20260904194531 69 180 0.0 4.0 0.00 0.01 0.00 64 1014.4
20260904193028 69 201 1.0 5.0 0.00 0.01 0.00 66 1014.5
20260904191530 68 215 0.0 4.0 0.00 0.01 0.00 68 1014.6
20260904190022 68 134 0.0 4.0 0.00 0.01 0.00 73 1014.7
20260904184526 68 143 0.0 3.0 0.00 0.01 0.00 77 1014.8
20260904183017 67 137 0.0 8.0 0.00 0.01 0.00 79 1014.7